Overview Statistics Trail Chart Weather Telemetry Raw packets
 

This is the latest recevied weather packets stored in our database for station/object 4S6DRJ-13. If no packets are shown the sender has not sent any weather packets the latest 10 day(s).

<< 43 44 45 46 47 48 49 >>
Time Temp. Humidity Pressure Rain* Wind** Luminosity Snow
1788383072 27.78° C 86% 1008.9 hPa 0 mm 1.34 m/s, 237° 0 W/m² -
1788383010 27.78° C 86% 1009 hPa 0 mm 0 m/s 0 W/m² -
1788382949 27.78° C 86% 1009 hPa 0 mm 0 m/s 0 W/m² -
1788382888 27.78° C 85% 1009.1 hPa 0 mm 0.45 m/s, 223° 0 W/m² -
1788382827 27.78° C 86% 1009.1 hPa 0 mm 0.89 m/s, 215° 0 W/m² -
1788382766 27.78° C 85% 1008.9 hPa 0 mm 0 m/s 0 W/m² -
1788382705 27.78° C 85% 1009 hPa 0 mm 0.89 m/s, 232° 0 W/m² -
1788382644 27.78° C 85% 1009 hPa 0 mm 0 m/s 0 W/m² -
1788382583 27.78° C 85% 1009.1 hPa 0 mm 0.45 m/s, 148° 0 W/m² -
1788382522 27.78° C 85% 1009.2 hPa 0 mm 0.89 m/s, 226° 0 W/m² -
1788382461 27.78° C 85% 1009.1 hPa 0 mm 0.45 m/s, 205° 0 W/m² -
1788382400 27.78° C 85% 1009 hPa 0 mm 0.45 m/s, 221° 0 W/m² -
1788382339 27.78° C 85% 1009.1 hPa 0 mm 0.45 m/s, 224° 0 W/m² -
1788382278 27.78° C 85% 1009 hPa 0 mm 1.34 m/s, 240° 0 W/m² -
1788382217 27.78° C 85% 1009 hPa 0 mm 1.34 m/s, 215° 0 W/m² -
1788382156 27.78° C 85% 1009.2 hPa 0 mm 0.45 m/s, 236° 0 W/m² -
1788382095 27.78° C 85% 1009.2 hPa 0 mm 1.34 m/s, 206° 0 W/m² -
1788382035 27.78° C 85% 1009.1 hPa 0 mm 0.89 m/s, 210° 0 W/m² -
1788381973 27.78° C 85% 1009.3 hPa 0 mm 0.45 m/s, 245° 0 W/m² -
1788381912 27.78° C 85% 1009.3 hPa 0 mm 0.45 m/s, 202° 0 W/m² -
1788381851 27.78° C 86% 1009.1 hPa 0 mm 1.34 m/s, 224° 0 W/m² -
1788381790 27.78° C 86% 1009 hPa 0 mm 0.89 m/s, 224° 0 W/m² -
1788381729 27.78° C 86% 1009.3 hPa 0 mm 0.45 m/s, 214° 0 W/m² -
1788381668 27.78° C 86% 1009 hPa 0 mm 0.45 m/s, 238° 0 W/m² -
1788381607 27.78° C 86% 1009.2 hPa 0 mm 0 m/s 0 W/m² -

* Rain latest hour (hover to see other rain measurements)
** Current wind speed in m/s (hover to see current wind gust speed)